Location: Casaglia
(44.0333°N, 11.5167°E)
Time: 06:07:53
(UTC+00:00)

X-37B - Pass Details

Date: 31 July 2021
Orbit: 381 x 393 km, 45.0° (Epoch: 29 August)

Event Time Altitude Azimuth Distance (km) Brightness Sun altitude
Exits shadow 02:55:13 10° 188° (S) 1,388 3.0 -10.8°
Maximum altitude 02:57:18 17° 146° (SE) 1,068 2.8 -10.5°
Drops below altitude 10° 02:59:23 10° 104° (ESE) 1,396 3.9 -10.2°
Sets 03:01:57 0° 83° (E) 2,254 5.6 -9.8°
